Location: Asheville, NC
(35.6000°N, 82.5500°W)
Time: 19:11:52

STARS - Pass Details

Date: 11 March 2018
Orbit: 625 x 641 km, 98.3° (Epoch: 20 March)

Event Time Altitude Azimuth Distance (km) Brightness Sun altitude
Rises 21:00:14 0° 350° (N) 2,930 ? -18.2°
Reaches altitude 10° 21:03:26 10° 324° (NW) 2,013 ? -18.9°
Maximum altitude 21:05:35 14° 295° (WNW) 1,778 ? -19.3°
Drops below altitude 10° 21:07:44 10° 265° (W) 2,003 ? -19.7°
Sets 21:10:55 0° 239° (WSW) 2,902 ? -20.4°
